STARLINK-1260, 45404

Orbit data source: Space-Track

STARLINK-1260, 45404 is a payload satellite owned by SpaceX/Seattle (US) in LEO that was launched on Wed, 18 Mar 2020 UTC via an FALCON 9 launch vehicle from the Air Force Eastern Test Range (AFETR). Payloads include a variety of satellites, spacecraft, and rockets equipped with specific instruments for various scientific and technological missions. These include communications satellites like Starlink; space stations such as the ISS; scientific satellites like the Hubble; Earth observation satellites from companies like Planet Labs, Umbra, and HawkEye 360; GPS; miniature CubeSats for education and research; and military/defense satellites.

Loading next visibility...
STARLINK-1260 details
Identifier
45404, 2020-019AW
Orbit
LEO
Last TLE update10 hours ago
Origin
Flag of USSpaceX/Seattle (US)
ManufacturerSpaceX/Seattle
MissionOperational Commercial Communications
Bus & MotorSTARLINK, Unknown motor
Mass260 kg wet, ~248 kg dry
Launch date (UTC)
2020-03-18 (5 years ago)
Launch vehicle
FALCON 9
Launch site
Air Force Eastern Test Range (AFETR)
Object type
Payload
Rocket body
Debris
Shape & HBRBox + 1 Pan, 8.86 m
Radar Cross Section13.562 m², Large (>1 m²)

Expand to show TLE details & history

TLE from 10 hours ago
0 STARLINK-1260
1 45404U 20019AW  24346.50121472  .00001955  00000-0  15015-3 0  9995
2 45404  53.0562  11.0612 0001590  83.8564 276.2606 15.06388321261555
Epoch: 2024-12-11T12:01Z
Definitive object data (Epoch: 2024-12-11T12:01:44.951Z)
Latitude-0.00005°
Longitude109.92887°
Altitude548.007 km
Speed7.589 km/s
True Right ascension00h 44m 14s
True Declination0° 00' 00"
Sunlit
Object was in daylight at TLE epoch
Visualization TLE readout
Latitude17.15487°
Longitude121.47176°
Altitude547.009 km
Speed7.591 km/s
Apparent Right ascension04h 08m 08s
Apparent Declination-14° 58' 35"
Sunlit
Object is in full shadow
Visualization observer readout
Local Sidereal Time20:04:35
Azimuth81.764° E
Elevation-33.105°
Doppler factor1
Orbital elements
Apogee altitude548.619 km
Perigee altitude546.417 km
Semi-major axis6,925.655 km
Eccentricity0.000159
Inclination53.0562°
RAAN11.0612°
Arg. of periapsis83.8564°
True anomaly276.24249°
Mean anomaly276.2606°
Eccentric anomaly276.25154°
Mean motion3.76575 °/min
BSTAR0.00015015
Orbital period95.6 mins
Loading maneuver chart data...
Loading historical data...
Loading historical data...
Loading historical data...
Loading historical data...
Loading historical data...
Loading historical data...
Loading historical data...

STARLINK-1260 Visibility forecast

Observer location: undefined°, undefined

Span
Click to sort rows by Start time (UTC) header in descending order
Start Az.
Max El. time (UTC)
Max El. Az.
Max El.
End time (UTC)
End Az.
7 mins2024-12-12 04:06:42.035Z205.519° SW2024-12-12 04:09:42.035Z151.978° SSE35.384°2024-12-12 04:13:42.035Z61.923° ENE
5 mins2024-12-12 05:47:42.035Z285.818° WNW2024-12-12 05:49:42.035Z331.769° NNW26.518°2024-12-12 05:52:42.035Z29.434° NE
4 mins2024-12-12 09:09:42.035Z349.324° N2024-12-12 09:11:42.035Z23.605° NE15.313°2024-12-12 09:13:42.035Z53.237° ENE
6 mins2024-12-12 10:48:42.035Z324.419° NNW2024-12-12 10:51:42.035Z44.894° NE36.843°2024-12-12 10:54:42.035Z106.967° ESE
5 mins2024-12-12 12:28:42.035Z271.668° WNW2024-12-12 12:30:42.035Z233.073° WSW21.797°2024-12-12 12:33:42.035Z180.58° SSW
|